Regional Weather Roundup
Issued by NWS

Home | Current Version | Previous Version | Text Only | Print | Product List | Glossary Off
Versions: 1 2 3 4 5 6 7 8 9 10 11 12 13 14 15 16 17 18 19 20 21 22 23 24 25 26 27 28 29 30 31 32 33 34 35 36 37 38 39 40 41 42 43 44 45 46 47 48 49 50

000
ASUS43 KFSD 230310
RWRSD

WEATHER ROUNDUP FOR SOUTH DAKOTA
NATIONAL WEATHER SERVICE SIOUX FALLS SD
1000 PM CDT THU JUN 22 2017

NOTE: "FAIR" INDICATES FEW OR NO CLOUDS BELOW 12,000 FEET WITH NO
SIGNIFICANT WEATHER AND/OR OBSTRUCTIONS TO VISIBILITY.


SDZ001>005-009-010-012>017-230400-
NORTHWEST AND NORTH CENTRAL SOUTH DAKOTA

CITY           SKY/WX    TMP DP  RH WIND       PRES   REMARKS
BUFFALO          N/A     60  36  40 NW29G37   29.97R
FAITH            N/A     61  37  41 NW12      29.95R
MOBRIDGE       CLEAR     68  36  30 NW8       29.85R
$$

SDZ012>016-024>037-041>051-057-063-072>074-230400-
SOUTHWEST AND SOUTH CENTRAL SOUTH DAKOTA

CITY           SKY/WX    TMP DP  RH WIND       PRES   REMARKS
RAPID CTY ARPT CLEAR     64  34  32 N16       30.00R
PIERRE         CLEAR     68  40  35 N15       29.88R
CUSTER         CLOUDY    59  32  36 N8        30.10R
ELLSWORTH AFB  CLEAR     67  35  31 N17       30.00R
PHILIP         CLEAR     66  36  32 N12       29.94R
PINE RIDGE     CLEAR     62  47  57 CALM      29.98R
SPEARFISH      MOCLDY    63  34  34 W9        30.07R
WINNER         FAIR      69  43  38 N5        29.90R
$$

SDZ004>011-016>023-039-040-230400-
NORTHEAST SOUTH DAKOTA

CITY           SKY/WX    TMP DP  RH WIND       PRES   REMARKS
ABERDEEN       PTCLDY    65  43  44 W6        29.82R
WATERTOWN      CLEAR     63  55  75 SW8       29.82R
BROOKINGS      CLEAR     63  54  72 CALM      29.85R
SISSETON         N/A     64  46  52 W7        29.78R
$$

SDZ017-020-022-023-036>040-048>070-230400-
SOUTHEAST SOUTH DAKOTA

CITY           SKY/WX    TMP DP  RH WIND       PRES   REMARKS
SIOUX FALLS    PTCLDY    63  52  67 NW3       29.84R
HURON          LGT RAIN  67  54  63 SW6       29.83R
CHAMBERLAIN    CLEAR     67  55  67 CALM      29.88R
MITCHELL       CLEAR     68  47  46 CALM      29.85R
YANKTON        PTCLDY    67  53  61 N7        29.85R
$$

ABBREVIATIONS USED IN REMARKS
   TC - TEMPERATURE IN CELSIUS
  WCI - WIND CHILL INDEX
   HX - HEAT INDEX
  VSB - VISIBILITY




USA.gov is the U.S. government's official web portal to all federal, state and local government web resources and services.